Location: Im Fang
(46.6019°N, 7.2397°E)
Time: 15:17:22
(UTC+00:00)

Cosmos 1891 Rocket - Pass Details

Date: 08 December 2019
Orbit: 933 x 1019 km, 82.9° (Epoch: 28 January)

Event Time Altitude Azimuth Distance (km) Brightness Sun altitude
Rises 04:18:18 0° 194° (SSW) 3,741 7.5 -27.1°
Reaches altitude 10° 04:20:51 10° 197° (SSW) 2,788 6.8 -26.7°
Maximum altitude 04:27:15 69° 281° (W) 1,072 4.4 -25.6°
Drops below altitude 10° 04:33:35 10° 4° (N) 2,760 6.8 -24.5°
Sets 04:36:07 0° 7° (N) 3,700 7.5 -24.1°
